Home > Weather > Stralsund > Past weeks

Flag for Germany Past Weather in Stralsund, Mecklenburg-Western Pomerania, Germany — Yesterday and Last 2 Weeks

Now
73 °F

Scattered clouds.


Feels Like: 77 °F
Forecast: 60 / 74 °F
Wind: 1 mph from North

Location: Laage

Current Time: Jul 28, 2016 at 8:23:07 PM

Latest Report: Jul 28, 2016 at 7:20 PM


Visibility: N/A

Pressure: 29.92 "Hg

Humidity: 53%

Dew Point: 55 °F

Location of StralsundLocation

Past Weather in Stralsund — Graph

°F

Stralsund Temperature Yesterday

Maximum temperature yesterday: 70 °F (at 5:20 PM)
Minimum temperature yesterday: 57 °F (at 1:20 AM)
Average temperature yesterday: 63 °F

High & Low Weather Summary for the Past Weeks

 TemperatureHumidityPressure
High84 °F (Jul 21, 5:20 PM)100% (Jul 14, 3:20 AM)30.18 "Hg (Jul 14, 3:20 AM)
Low52 °F (Jul 14, 3:20 AM)30% (Jul 22, 1:20 PM)29.89 "Hg (Jul 13, 7:58 PM)
Average66 °F74%30.05 "Hg
* Reported Jul 13 7:58 PM — Jul 28 6:20 PM, Stralsund, Weather by CustomWeather, © 2016

Note: Actual official high and low records may vary slightly from our data, if they occured in-between our weather recording intervals... More about our weather records

Advertising

Stralsund Weather History for the Previous 24 Hours

Scroll right to see more
 ConditionsComfort  
Time TempWeatherWind HumidityBarometerVisibility
6:20 PM
Thu, Jul 28
73 °FPassing clouds.2 mph53%29.92 "HgN/A
5:20 PM72 °FBroken clouds.7 mph57%29.95 "HgN/A
4:20 PM73 °FBroken clouds.2 mph53%29.95 "HgN/A
3:20 PM72 °FBroken clouds.6 mph57%29.98 "HgN/A
2:20 PM70 °FBroken clouds.6 mph57%29.98 "HgN/A
1:20 PM70 °FBroken clouds.5 mph60%29.98 "HgN/A
12:20 PM68 °FBroken clouds.7 mph60%29.98 "HgN/A
11:20 AM66 °FBroken clouds.7 mph68%29.98 "HgN/A
10:20 AM66 °FBroken clouds.7 mph78%29.98 "HgN/A
9:20 AM66 °FBroken clouds.8 mph78%29.98 "HgN/A
8:20 AM64 °FBroken clouds.9 mph88%29.98 "HgN/A
8:00 AM64 °FPartly sunny.9 mph88%29.95 "Hg4 mi
7:20 AM64 °FBroken clouds.7 mph88%29.95 "Hg4 mi
6:20 AM63 °FBroken clouds.6 mph88%29.95 "Hg4 mi
5:46 AM63 °FFog.3 mph88%29.95 "Hg3 mi
5:20 AM63 °FPartly cloudy.3 mph88%29.95 "Hg4 mi
4:20 AM61 °FPassing clouds.5 mph94%29.95 "Hg4 mi
3:20 AM61 °FFog.3 mph88%29.95 "HgN/A
1:20 AM61 °FPassing clouds.No wind94%29.95 "HgN/A
12:20 AM64 °FPassing clouds.5 mph83%29.95 "HgN/A
11:20 PM
Wed, Jul 27
64 °FPassing clouds.2 mph94%29.95 "HgN/A
10:20 PM63 °FPassing clouds.1 mph94%29.95 "HgN/A
9:20 PM64 °FScattered clouds.No wind88%29.95 "HgN/A
8:20 PM70 °FScattered clouds.6 mph73%29.95 "HgN/A
Weather by CustomWeather, © 2016

See weather overviewHow to use our weather pages